Weather History for Oxford, NC

Change the Weather History Date:

Monday, January 2, 2012

  Actual Average (KTDF) Record (KTDF)
Temperature  
Mean Temperature 41 °F -  
Max Temperature 48 °F 49 °F 75 °F (1985)
Min Temperature 34 °F 29 °F 10 °F (1969)
Degree Days  
Heating Degree Days 24    
Moisture  
Dew Point 15 °F    
Average Humidity 35    
Maximum Humidity 48    
Minimum Humidity 26    
Precipitation  
Precipitation 0.03 in - - ()
Sea Level Pressure  
Sea Level Pressure 29.98 in    
Wind  
Wind Speed 7 mph (WNW)    
Max Wind Speed 17 mph    
Max Gust Speed 22 mph    
Visibility 10 miles    
Events      
Averages and records for this station are not official NWS values.
T = Trace of Precipitation, MM = Missing Value Source: NWS Daily Summary

Daily Weather History Graph

Daily Weather History Graph

Search for Another Location

Airport:

Trip Planner

Search our weather history database for the weather conditions in past years. The results will help you decide how hot, cold, wet, or windy it might be!

Date:

Astronomy

Jan. 02, 2012 Rise Set
Actual Time 7:25 AM EST 5:10 PM EST
Civil Twilight 6:57 AM EST 5:38 PM EST
Nautical Twilight 6:25 AM EST 6:11 PM EST
Astronomical Twilight 5:53 AM EST 6:42 PM EST
Moon 12:21 PM EST (1/2) 1:21 AM EST (1/2)
Length of Visible Light 10h 41m
Length of Day
9h 44m
Waxing Gibbous, 63% of the Moon is Illuminated
Jan 2
Waxing Gibbous
Jan 9
Full
Jan 16
Last Quarter
Jan 23
New
Jan 30
First Quarter

Hourly Weather History & Observations

Time (EST) Temp. Windchill Dew Point Humidity Pressure Visibility Wind Dir Wind Speed Gust Speed Precip Events Conditions
12:35 AM 48.4 °F - 28.2 °F 46% 29.97 in 10.0 mi West 5.8 mph 16.1 mph N/A   Scattered Clouds
12:55 AM 47.3 °F - 27.5 °F 46% 29.97 in 10.0 mi West 4.6 mph - N/A   Scattered Clouds
1:15 AM 46.0 °F 42.5 °F 27.3 °F 48% 29.97 in 10.0 mi West 6.9 mph - N/A   Clear
1:35 AM 45.7 °F 44.4 °F 26.4 °F 47% 29.97 in 10.0 mi West 3.5 mph - N/A   Clear
1:55 AM 44.8 °F 41.6 °F 25.3 °F 47% 29.96 in 10.0 mi West 5.8 mph - N/A   Clear
2:15 AM 44.1 °F 41.5 °F 24.4 °F 46% 29.97 in 10.0 mi West 4.6 mph - N/A   Clear
2:35 AM 44.1 °F 39.5 °F 22.1 °F 42% 29.97 in 10.0 mi West 8.1 mph 16.1 mph N/A   Clear
2:55 AM 43.7 °F 39.7 °F 21.2 °F 41% 29.96 in 10.0 mi West 6.9 mph - N/A   Clear
3:15 AM 43.2 °F 38.4 °F 20.8 °F 41% 29.96 in 10.0 mi WNW 8.1 mph - N/A   Clear
3:35 AM 43.0 °F 39.5 °F 20.5 °F 41% 29.96 in 10.0 mi West 5.8 mph - N/A   Clear
3:55 AM 42.3 °F 38.6 °F 20.3 °F 42% 29.96 in 10.0 mi WSW 5.8 mph - N/A   Clear
4:15 AM 41.5 °F 37.1 °F 20.8 °F 44% 29.96 in 10.0 mi West 6.9 mph - N/A   Clear
4:35 AM 41.2 °F 38.2 °F 20.7 °F 44% 29.95 in 10.0 mi West 4.6 mph - N/A   Clear
4:55 AM 40.8 °F - 20.7 °F 45% 29.96 in 10.0 mi Calm Calm - N/A   Clear
5:15 AM 39.9 °F - 21.0 °F 47% 29.97 in 10.0 mi Calm Calm - N/A   Clear
5:35 AM 39.6 °F 34.7 °F 21.0 °F 48% 29.98 in 10.0 mi WNW 6.9 mph - N/A   Clear
5:55 AM 39.9 °F 36.7 °F 19.6 °F 44% 29.98 in 10.0 mi WNW 4.6 mph - N/A   Clear
6:15 AM 39.6 °F 34.7 °F 18.0 °F 42% 29.99 in 10.0 mi WNW 6.9 mph - N/A   Clear
6:35 AM 39.2 °F 32.0 °F 15.6 °F 38% 29.99 in 10.0 mi WNW 11.5 mph 16.1 mph N/A   Clear
6:55 AM 38.7 °F 34.3 °F 14.0 °F 37% 30.00 in 10.0 mi WNW 5.8 mph - N/A   Clear
7:15 AM 38.7 °F 34.3 °F 12.0 °F 34% 30.01 in 10.0 mi WNW 5.8 mph - N/A   Clear
7:35 AM 38.3 °F - 11.7 °F 34% 30.01 in 10.0 mi Calm Calm - N/A   Clear
7:55 AM 37.2 °F 33.6 °F 12.9 °F 37% 30.02 in 10.0 mi West 4.6 mph - N/A   Clear
8:15 AM 37.4 °F 34.9 °F 14.4 °F 39% 30.02 in 10.0 mi WSW 3.5 mph - N/A   Clear
8:35 AM 38.3 °F 31.9 °F 12.2 °F 34% 30.03 in 10.0 mi WNW 9.2 mph - N/A   Clear
8:55 AM 39.2 °F 33.0 °F 9.5 °F 29% 30.03 in 10.0 mi WNW 9.2 mph - N/A   Clear
9:15 AM 40.1 °F 34.7 °F 8.4 °F 27% 30.03 in 10.0 mi WNW 8.1 mph 20.7 mph N/A   Clear
9:35 AM 40.8 °F 35.0 °F 9.7 °F 28% 30.04 in 10.0 mi West 9.2 mph - N/A   Clear
9:55 AM 41.0 °F 34.7 °F 10.0 °F 28% 30.04 in 10.0 mi West 10.4 mph 17.3 mph N/A   Clear
10:15 AM 41.5 °F 35.4 °F 9.9 °F 27% 30.03 in 10.0 mi West 10.4 mph - N/A   Clear
10:35 AM 41.9 °F 35.9 °F 10.8 °F 28% 30.02 in 10.0 mi WNW 10.4 mph - N/A   Clear
11:15 AM 42.6 °F 36.8 °F 10.2 °F 27% 29.99 in 10.0 mi WNW 10.4 mph 19.6 mph N/A   Clear
11:35 AM 43.2 °F 39.7 °F 11.5 °F 28% 29.98 in 10.0 mi West 5.8 mph - N/A   Clear
11:55 AM 43.3 °F 37.2 °F 11.3 °F 27% 29.97 in 10.0 mi WSW 11.5 mph 16.1 mph N/A   Clear
12:15 PM 43.5 °F 37.9 °F 11.8 °F 28% 29.96 in 10.0 mi West 10.4 mph - N/A   Clear
12:35 PM 43.9 °F 37.9 °F 11.5 °F 27% 29.94 in 10.0 mi West 11.5 mph 17.3 mph N/A   Clear
12:55 PM 43.7 °F 38.6 °F 11.1 °F 27% 29.93 in 10.0 mi WSW 9.2 mph 17.3 mph N/A   Clear
1:15 PM 44.1 °F 38.6 °F 10.6 °F 26% 29.93 in 10.0 mi West 10.4 mph 16.1 mph N/A   Clear
1:35 PM 44.2 °F 38.8 °F 10.9 °F 26% 29.92 in 10.0 mi West 10.4 mph 17.3 mph N/A   Clear
1:55 PM 44.2 °F 38.0 °F 11.1 °F 26% 29.92 in 10.0 mi West 12.7 mph 17.3 mph N/A   Clear
2:15 PM 43.9 °F 40.5 °F 11.5 °F 27% 29.92 in 10.0 mi West 5.8 mph - N/A   Scattered Clouds
2:55 PM 44.1 °F 40.1 °F 12.6 °F 28% 29.92 in 10.0 mi WNW 6.9 mph - N/A   Overcast
3:15 PM 43.2 °F 38.4 °F 12.4 °F 29% 29.92 in 10.0 mi WNW 8.1 mph - N/A   Mostly Cloudy
3:35 PM 42.3 °F 36.8 °F 12.2 °F 29% 29.93 in 10.0 mi West 9.2 mph - N/A   Mostly Cloudy
3:55 PM 41.9 °F 38.2 °F 12.4 °F 30% 29.94 in 10.0 mi NW 5.8 mph - N/A   Overcast
4:15 PM 41.0 °F 33.9 °F 12.9 °F 32% 29.95 in 10.0 mi NW 12.7 mph 19.6 mph N/A   Overcast
4:35 PM 39.7 °F 30.9 °F 12.7 °F 33% 29.96 in 10.0 mi NW 17.3 mph 21.9 mph N/A   Overcast
4:55 PM 38.7 °F 32.4 °F 12.2 °F 34% 29.97 in 10.0 mi NNW 9.2 mph 18.4 mph N/A   Overcast
5:15 PM 37.9 °F 30.9 °F 12.0 °F 35% 29.97 in 10.0 mi NW 10.4 mph 19.6 mph N/A   Overcast
5:35 PM 37.6 °F 31.6 °F 11.1 °F 34% 29.98 in 10.0 mi NW 8.1 mph - N/A   Overcast
5:55 PM 37.0 °F 28.1 °F 11.1 °F 34% 29.99 in 10.0 mi NW 15.0 mph 20.7 mph N/A   Scattered Clouds
6:15 PM 36.1 °F 30.6 °F 11.8 °F 37% 29.99 in 10.0 mi NW 6.9 mph - N/A   Mostly Cloudy
6:35 PM 35.4 °F 30.5 °F 11.7 °F 38% 29.99 in 10.0 mi NW 5.8 mph - N/A   Scattered Clouds
6:55 PM 34.9 °F 29.0 °F 10.4 °F 36% 29.99 in 10.0 mi NW 6.9 mph - N/A   Scattered Clouds
7:15 PM 34.5 °F 27.9 °F 8.2 °F 33% 29.99 in 10.0 mi WNW 8.1 mph - N/A   Mostly Cloudy
7:35 PM 34.2 °F 27.5 °F 7.3 °F 33% 29.98 in 10.0 mi NW 8.1 mph - N/A   Scattered Clouds
7:55 PM 33.6 °F 28.4 °F 7.2 °F 33% 29.98 in 10.0 mi NW 5.8 mph - N/A   Mostly Cloudy
8:15 PM 33.4 °F 28.1 °F 7.0 °F 33% 29.98 in 10.0 mi NW 5.8 mph - N/A   Mostly Cloudy
8:35 PM 33.1 °F 28.7 °F 7.0 °F 34% 29.99 in 10.0 mi NW 4.6 mph - N/A   Scattered Clouds
8:55 PM 32.7 °F 28.3 °F 7.2 °F 34% 29.98 in 10.0 mi NW 4.6 mph - N/A   Mostly Cloudy
9:15 PM 32.2 °F 27.7 °F 7.5 °F 36% 29.99 in 10.0 mi WNW 4.6 mph - N/A   Mostly Cloudy
9:35 PM 32.4 °F 27.9 °F 8.1 °F 36% 30.00 in 10.0 mi WNW 4.6 mph - N/A   Overcast
9:55 PM 32.2 °F 26.7 °F 9.1 °F 38% 30.01 in 10.0 mi WNW 5.8 mph - N/A   Overcast
10:15 PM 32.0 °F 25.6 °F 9.5 °F 39% 30.01 in 10.0 mi WNW 6.9 mph - N/A   Overcast
10:35 PM 32.0 °F 24.8 °F 9.9 °F 40% 30.01 in 10.0 mi NW 8.1 mph - N/A   Overcast
10:55 PM 31.6 °F 23.7 °F 10.6 °F 42% 30.02 in 10.0 mi NW 9.2 mph 20.7 mph N/A   Overcast
11:15 PM 31.3 °F 23.9 °F 11.3 °F 44% 30.01 in 10.0 mi NW 8.1 mph - N/A   Overcast
11:35 PM 31.1 °F 22.4 °F 11.1 °F 43% 30.01 in 10.0 mi NW 10.4 mph 16.1 mph N/A   Overcast
11:55 PM 30.7 °F 23.3 °F 11.3 °F 44% 30.01 in 10.0 mi WNW 8.1 mph - N/A   Overcast